EZY2WG EHAM-LEPA

Flight info

Callsign EZY2WG
Flight time N/A
Altitude 32000
Route EHAM/09 N0120F230 KUDA2N WOODY N872 CIV KOVIN DUCRA UM728 RESMI UN857 DISAK DIRMO VALKU ATSUP MINSO DEGOL PPG ALBER P84 LORES LORE1P LEPA
Aircraft A320/M-SDE2E3FGHIRWXY/LB1

Departure

Time 2026-04-30 20:04
Airport Amsterdam Airport Schiphol (EHAM)

Arrival

Time N/A
Airport Palma de Mallorca Airport (LEPA)
Time Latitude Longitude Altitude Speed Heading
2026-04-30 19:20 52.31002 4.77235 8 ft 0 kts 184°
2026-04-30 19:49 52.31007 4.77235 8 ft 2 kts 184°
2026-04-30 19:49 52.31024 4.77238 8 ft 2 kts 184°
2026-04-30 19:49 52.31034 4.77239 8 ft 2 kts 184°
2026-04-30 19:50 52.31044 4.77240 8 ft 2 kts 184°
2026-04-30 19:50 52.31053 4.77241 8 ft 2 kts 191°
2026-04-30 19:50 52.31058 4.77243 8 ft 2 kts 205°
2026-04-30 19:50 52.31062 4.77247 8 ft 2 kts 216°
2026-04-30 19:51 52.31068 4.77255 8 ft 2 kts 229°
2026-04-30 19:51 52.31074 4.77269 8 ft 2 kts 248°
2026-04-30 19:51 52.31077 4.77284 8 ft 1 kts 265°
2026-04-30 19:51 52.31077 4.77290 8 ft 1 kts 273°
2026-04-30 19:52 52.31076 4.77297 8 ft 1 kts 272°
2026-04-30 19:52 52.31076 4.77299 8 ft 0 kts 272°
2026-04-30 19:56 52.31076 4.77295 8 ft 2 kts 272°
2026-04-30 19:56 52.31077 4.77267 8 ft 6 kts 272°
2026-04-30 19:57 52.31077 4.77263 8 ft 1 kts 272°
2026-04-30 19:57 52.31078 4.77207 8 ft 13 kts 272°
2026-04-30 19:57 52.31080 4.77121 8 ft 21 kts 272°
2026-04-30 19:57 52.31103 4.76965 8 ft 30 kts 316°
2026-04-30 19:58 52.31226 4.77025 8 ft 28 kts 32°
2026-04-30 19:58 52.31318 4.77121 8 ft 36 kts 33°
2026-04-30 19:58 52.31381 4.77184 8 ft 27 kts 25°
2026-04-30 19:58 52.31533 4.77179 8 ft 27 kts 347°
2026-04-30 19:59 52.31567 4.77040 8 ft 28 kts 267°
2026-04-30 19:59 52.31559 4.76832 8 ft 36 kts 265°
2026-04-30 19:59 52.31541 4.76275 8 ft 39 kts 266°
2026-04-30 20:00 52.31532 4.75993 8 ft 36 kts 267°
2026-04-30 20:00 52.31524 4.75789 8 ft 32 kts 266°
2026-04-30 20:00 52.31517 4.75580 8 ft 35 kts 268°
2026-04-30 20:00 52.31509 4.75333 8 ft 39 kts 266°
2026-04-30 20:01 52.31492 4.74784 8 ft 48 kts 268°
2026-04-30 20:01 52.31539 4.74659 8 ft 26 kts 359°
2026-04-30 20:01 52.31642 4.74684 8 ft 32 kts 33°
2026-04-30 20:02 52.31671 4.74876 8 ft 0 kts 86°
2026-04-30 20:03 52.31672 4.74880 8 ft 1 kts 86°
2026-04-30 20:03 52.31678 4.75030 8 ft 46 kts 86°
2026-04-30 20:03 52.31697 4.75594 8 ft 106 kts 86°
2026-04-30 20:03 52.31730 4.76521 18 ft 157 kts 87°
2026-04-30 20:04 52.31766 4.77563 353 ft 171 kts 87°
2026-04-30 20:04 52.31779 4.78648 869 ft 176 kts 94°
2026-04-30 20:04 52.31622 4.79777 1255 ft 188 kts 111°
2026-04-30 20:05 52.30790 4.81545 1810 ft 222 kts 144°
2026-04-30 20:05 52.29646 4.82397 2341 ft 250 kts 167°
2026-04-30 20:05 52.27132 4.83681 3584 ft 258 kts 155°
2026-04-30 20:06 52.25962 4.84418 4159 ft 260 kts 167°
2026-04-30 20:06 52.24896 4.84652 4640 ft 261 kts 176°
2026-04-30 20:06 52.23886 4.84713 5177 ft 272 kts 179°
2026-04-30 20:06 52.22591 4.84719 6276 ft 269 kts 180°
2026-04-30 20:07 52.21486 4.84705 7001 ft 274 kts 180°
2026-04-30 20:07 52.20285 4.84683 7782 ft 278 kts 180°
2026-04-30 20:07 52.17222 4.84620 9700 ft 287 kts 180°
2026-04-30 20:08 52.15722 4.84590 10508 ft 294 kts 180°
2026-04-30 20:08 52.14106 4.84558 10570 ft 327 kts 180°
2026-04-30 20:08 52.12331 4.84521 11168 ft 340 kts 181°
2026-04-30 20:08 52.10090 4.84473 12287 ft 344 kts 180°
2026-04-30 20:09 52.08222 4.84434 13115 ft 349 kts 180°
2026-04-30 20:09 52.06294 4.84394 13947 ft 353 kts 180°
2026-04-30 20:09 52.02548 4.84467 15434 ft 361 kts 180°
2026-04-30 20:10 51.98291 4.82645 17071 ft 370 kts 207°
2026-04-30 20:10 51.96804 4.81070 17697 ft 373 kts 218°
2026-04-30 20:10 51.95034 4.78789 18423 ft 378 kts 213°
2026-04-30 20:11 51.90724 4.75409 19914 ft 387 kts 205°
2026-04-30 20:11 51.88947 4.74024 20517 ft 389 kts 206°
2026-04-30 20:11 51.86664 4.72241 21223 ft 394 kts 206°
2026-04-30 20:12 51.81995 4.68601 22611 ft 402 kts 206°
2026-04-30 20:12 51.79836 4.66923 23212 ft 406 kts 206°
2026-04-30 20:12 51.77970 4.65473 23713 ft 409 kts 206°
2026-04-30 20:13 51.77484 4.65095 23862 ft 411 kts 206°
2026-04-30 20:13 51.75557 4.63600 24612 ft 412 kts 206°
2026-04-30 20:13 51.73501 4.62006 25248 ft 417 kts 206°
2026-04-30 20:13 51.71365 4.60350 25905 ft 422 kts 206°
2026-04-30 20:14 51.69737 4.59089 26392 ft 425 kts 206°
2026-04-30 20:14 51.68189 4.57892 26836 ft 429 kts 206°
2026-04-30 20:14 51.66723 4.56758 27267 ft 431 kts 206°
2026-04-30 20:14 51.65155 4.55545 27692 ft 434 kts 206°
2026-04-30 20:15 51.62938 4.53833 28282 ft 438 kts 206°
2026-04-30 20:15 51.61246 4.52528 28778 ft 440 kts 206°
2026-04-30 20:15 51.59425 4.51124 29400 ft 439 kts 206°
2026-04-30 20:15 51.57675 4.49776 30002 ft 437 kts 206°
2026-04-30 20:16 51.55815 4.48345 30614 ft 436 kts 206°
2026-04-30 20:16 51.53764 4.46768 31282 ft 435 kts 206°
2026-04-30 20:16 51.51990 4.45406 31844 ft 434 kts 206°
2026-04-30 20:16 51.49769 4.43702 32531 ft 432 kts 206°
2026-04-30 20:17 51.47636 4.42068 32915 ft 432 kts 206°
2026-04-30 20:17 51.45709 4.40593 32977 ft 445 kts 206°
2026-04-30 20:17 51.44315 4.39527 33012 ft 455 kts 206°
2026-04-30 20:18 51.41801 4.37683 33043 ft 471 kts 202°
2026-04-30 20:18 51.38941 4.36268 32980 ft 474 kts 193°
2026-04-30 20:19 51.34176 4.35034 32994 ft 471 kts 188°
2026-04-30 20:19 51.29450 4.34063 32998 ft 470 kts 187°
2026-04-30 20:20 51.26860 4.33547 33000 ft 470 kts 186°
2026-04-30 20:21 50.17464 4.12350 33007 ft 471 kts 186°
2026-04-30 20:22 48.72805 3.85241 32851 ft 471 kts 188°
2026-04-30 20:22 48.34347 3.80111 32978 ft 471 kts 183°
2026-04-30 20:23 47.10160 3.57134 33001 ft 471 kts 178°
2026-04-30 20:24 47.05047 3.56752 33001 ft 471 kts 186°
2026-04-30 20:24 46.99337 3.55845 32999 ft 471 kts 186°